Location: Newark
(45.8667°N, 9.7333°E)
Time: 20:35:17
(UTC+00:00)

A-11 Canister half - Pass Details

Date: 25 January 2020
Orbit: 1517 x 1683 km, 47.2° (Epoch: 19 February)

Event Time Altitude Azimuth Distance (km) Brightness Sun altitude
Rises 00:45:50 0° 256° (WSW) 4,713 - -59.4°
Reaches altitude 10° 00:48:54 10° 257° (WSW) 3,714 - -59.0°
Maximum altitude 00:58:17 88° 349° (NNW) 1,525 - -58.0°
Exits shadow 01:06:23 15° 78° (ENE) 3,302 11.0 -57.1°
Drops below altitude 10° 01:07:35 10° 79° (ENE) 3,684 11.3 -56.9°
Sets 01:10:37 0° 79° (E) 4,673 11.9 -56.6°
